RH
71 65 62 62 62 65 67 67 71 77 74 74 72 75 78 75 76 81 80 79 72 72
71 67 65 66 68 68 70 66 72 78 80 77 76 77 78 76 81 80 84 81 82 76
70 70 66 68 74 72 73 74 76 78 83 79 80 79 80 80 79 82 84 82 82 80
72 72 72 71 72 76 76 76 78 78 81 81 82 81 82 80 78 82 83 83 83 83
74 74 76 74 74 77 78 78 78 78 78 81 80 82 85 85 82 84 83 83 83 82
80 78 76 76 74 75 78 78 79 78 82 82 83 84 86 86 86 87 85 83 84 82
81 79 77 76 76 77 78 78 80 82 81 82 82 84 85 88 90 92 89 90 85 83
80 80 79 80 79 78 78 80 79 82 81 82 85 86 86 90 92 94 94 94 86 91
76 78 82 82 83 83 81 81 80 86 84 87 87 100 100 97 94 96 98 98 95 92
73 76 79 79 82 85 86 86 87 89 87 88 88 100 100 100 95 98 98 98 99 99
69 74 74 78 82 86 88 92 92 92 89 90 91 100 100 100 98 98 97 97 97 97
93 76 77 83 84 84 93 93 92 91 92 93 94 100 100 100 98 98 98 98 95 95
98 97 84 86 90 87 92 94 95 96 94 98 98 100 100 99 98 98 99 99 98 100
98 98 99 95 95 94 95 97 99 99 99 99 98 98 100 100 98 98 99 99 99 99
Wind_Speed
22 15 16 17 14 13 13 16 17 19 19 19 18 16 15 13 13 14 14 18 15 10
20 21 18 20 18 14 16 13 17 18 20 19 19 18 17 14 15 14 14 15 15 13
23 23 21 17 19 20 18 17 17 19 19 19 19 19 19 16 15 16 12 11 16 14
21 22 20 19 19 19 16 18 19 20 19 20 19 19 18 18 17 18 16 15 16 16
20 18 19 20 20 18 19 18 19 18 18 18 19 19 20 19 16 17 18 17 17 17
19 18 21 21 21 19 19 19 17 18 20 20 20 19 19 18 17 17 18 17 17 17
19 20 19 20 20 19 18 18 18 20 19 18 18 17 17 17 15 14 15 14 16 16
17 17 18 19 19 18 18 17 18 17 17 17 16 13 19 15 15 14 13 12 14 13
13 15 18 17 17 17 17 17 17 17 18 16 12 16 17 17 14 14 13 11 9 9
12 15 16 16 16 17 17 14 16 16 16 17 17 17 21 18 13 13 13 13 12 10
12 13 14 15 16 15 13 14 12 14 16 16 14 20 21 19 12 12 13 14 15 14
7 12 13 15 15 13 11 12 13 13 15 16 12 18 20 19 12 11 13 12 14 16
7 7 12 13 13 12 11 12 10 12 14 15 11 18 24 20 10 11 9 9 10 12
10 9 10 8 8 11 12 9 10 10 7 9 12 14 24 19 13 11 9 9 7 7
Wind_Direction
205 205 205 201 199 201 203 207 198 203 208 209 209 208 203 205 207 201 202 202 204 200
205 208 206 206 204 201 205 205 203 199 204 205 206 204 200 207 206 205 202 206 203 202
206 207 210 205 205 207 206 199 197 199 201 200 205 204 202 205 202 203 206 205 202 202
209 210 209 210 212 211 206 202 202 199 197 198 200 204 204 207 203 204 202 201 199 199
210 206 207 214 213 207 209 205 205 201 201 200 199 201 205 206 203 203 207 204 199 198
208 204 209 211 214 209 207 207 204 202 202 201 201 202 204 203 203 205 207 203 200 197
204 208 208 211 212 211 208 207 203 205 204 202 200 203 201 199 200 203 209 201 201 194
207 209 209 212 211 211 208 209 205 203 204 201 197 198 197 194 198 198 199 195 198 189
215 211 213 211 211 209 208 204 203 201 201 201 200 189 181 188 193 189 179 176 174 160
227 216 214 212 208 210 207 201 201 200 198 204 203 173 184 186 184 182 177 165 153 145
240 230 217 210 208 208 201 198 197 198 197 202 203 179 178 172 175 171 173 169 165 161
312 236 219 210 206 203 190 197 202 201 197 202 197 171 163 169 167 165 172 171 172 168
353 327 216 207 197 196 191 195 193 199 196 192 176 172 168 171 168 164 167 166 172 178
4 7 346 216 185 188 190 181 180 175 169 168 166 177 180 168 165 166 155 156 146 151